Lid_Strength_Index
7 6 7 6 6 6 6 7 8 10 10 7 8 6 6 2 2 2 2 2 3 4 4 4 3 2 2 1 1 0 -0 -0 -1 -1 -1 -1 -2 -2
7 7 7 6 6 6 6 6 6 7 10 7 7 7 6 5 2 2 2 2 3 4 4 5 5 3 3 2 2 1 1 0 -0 -0 -0 -1 -1 -1
7 7 7 7 7 6 6 6 6 6 8 7 6 6 7 7 6 3 3 3 2 4 5 5 5 6 5 3 3 3 2 1 1 0 0 -0 -1 -1
8 7 7 6 6 6 6 6 6 6 6 8 6 6 7 7 7 7 4 3 4 4 4 6 5 6 6 7 5 4 4 3 3 2 1 1 0 -1
7 7 7 7 7 6 6 6 6 5 6 6 7 6 6 7 8 7 7 5 4 3 5 5 6 6 6 7 7 5 5 5 5 5 4 3 2 2
6 6 6 6 6 6 6 6 5 6 6 6 6 7 6 6 7 9 9 8 7 4 4 5 6 6 6 7 7 6 5 5 5 5 6 7 6 5
7 6 6 5 4 5 6 6 6 6 6 5 5 5 5 5 7 6 7 8 8 7 5 5 6 6 6 6 7 7 6 5 5 5 5 7 8 7
7 7 7 6 7 6 6 6 7 8 8 8 7 7 6 5 4 5 6 8 7 9 7 6 8 9 9 6 6 7 7 6 5 6 6 7 7 8
8 9 8 8 7 8 7 7 7 7 8 8 10 8 7 6 5 6 6 6 5 7 7 8 9 10 11 9 8 7 7 6 5 6 7 7 8 9
9 9 9 9 8 8 8 8 8 7 7 7 8 8 7 6 6 5 5 5 5 6 8 8 10 10 10 11 8 8 7 7 6 6 7 8 9 10
8 8 9 9 8 8 9 9 9 9 7 6 6 6 6 6 6 6 7 6 6 6 7 9 10 11 11 11 12 9 9 8 7 8 8 9 9 10
8 8 8 8 8 8 9 9 10 9 8 8 8 7 6 6 6 6 7 7 7 7 7 11 11 11 13 11 12 12 12 11 9 9 9 10 11 12
10 10 9 8 8 8 8 9 9 8 8 9 8 9 8 7 7 6 6 6 6 6 8 10 11 12 12 13 13 13 12 13 13 12 10 10 10 12
10 9 9 8 8 8 8 8 8 8 8 8 9 9 8 8 7 6 6 5 3 4 6 8 12 12 12 13 15 13 12 12 12 13 13 12 12 12
10 9 8 8 8 8 8 8 9 9 10 9 9 9 8 7 6 6 6 4 4 5 5 6 9 10 11 13 13 14 13 13 13 13 13 14 16 16
9 9 9 9 9 9 9 8 8 8 9 9 8 8 7 6 6 6 7 7 7 7 5 6 7 9 11 11 11 13 14 16 13 13 13 14 14 14
10 10 10 10 10 10 9 8 9 9 9 7 7 6 7 6 6 7 7 7 7 8 7 6 6 8 9 11 12 13 15 15 13 14 15 17 15 14
10 11 12 12 12 11 11 9 9 10 9 9 8 5 5 5 6 6 6 7 7 8 8 8 8 10 11 12 11 13 15 15 14 14 15 17 17 14
11 12 13 12 12 12 11 10 9 8 8 8 8 5 6 6 6 6 6 6 7 8 8 8 8 10 13 15 14 11 15 15 15 16 15 15 16 15
10 11 12 13 12 12 11 11 9 9 8 7 6 4 6 7 6 6 7 7 8 8 8 8 9 9 11 14 16 16 11 14 15 16 16 16 16 14
11 11 11 11 12 12 11 11 10 10 9 8 8 7 6 6 6 6 8 7 8 8 9 9 8 8 11 13 16 18 17 11 12 15 15 18 18 17
12 12 11 11 11 12 12 12 11 11 10 10 10 10 9 8 7 8 8 8 8 9 11 10 9 9 12 13 17 19 19 17 15 14 15 16 17 19
14 13 12 12 11 11 11 12 12 12 11 11 11 11 12 12 11 11 11 11 10 10 10 10 9 9 12 14 16 17 19 18 18 19 20 17 17 17